This demonstration page uses our WeatherBlox Daily Observations layout. Learn more.

36.17497, -115.13722

Hourly Observations for May 19, 2018

Temp ( °F °C ) Dew Point ( °F °C ) Humidity (%) Winds ( mph kmh ) Pressure ( in mb ) Visibility ( mi km ) Precip ( " mm )
12:53 am 00:53 Clear 77 25 33 0.6 20 20 W 3 6 29.74 1007 10 16.09344 0 0
1:53 am 01:53 Clear 75 23.9 33 0.6 22 22 SW 6 9 29.74 1007 10 16.09344 0 0
2:53 am 02:53 Clear 73 22.8 33 0.6 23 23 W 6 9 29.74 1007 10 16.09344 0 0
3:53 am 03:53 Clear 73 22.8 31 -0.6 21 21 N 9 15 29.74 1007 10 16.09344 0 0
4:53 am 04:53 Clear 71 21.7 32 0 24 24 NNW 5 7 29.74 1007 10 16.09344 0 0
5:53 am 05:53 Sunny 70 21.1 32 0 25 25 N 3 6 29.77 1008 10 16.09344 0 0
6:53 am 06:53 Sunny 74 23.3 32 0 21 21 Calm 29.77 1008 10 16.09344 0 0
7:53 am 07:53 Sunny 77 25 35 1.7 22 22 S 5 7 29.8 1009 10 16.09344 0 0
8:53 am 08:53 Sunny 81 27.2 35 1.7 19 19 E 6 9 29.8 1009 10 16.09344 0 0
9:53 am 09:53 Sunny 83 28.3 34 1.1 17 17 ESE 3 6 29.8 1009 10 16.09344 0 0
10:53 am 10:53 Sunny 85 29.4 32 0 15 15 SSE 7 11 29.77 1008 10 16.09344 0 0
11:53 am 11:53 Sunny 88 31.1 30 -1.1 12 12 E 7 11 29.77 1008 10 16.09344 0 0
12:53 pm 12:53 Sunny 88 31.1 30 -1.1 12 12 S 6 9 29.74 1007 10 16.09344 0 0
1:53 pm 13:53 Sunny 90 32.2 28 -2.2 11 11 SW 10 17 29.71 1006 10 16.09344 0 0
2:53 pm 14:53 Sunny 91 32.8 27 -2.8 10 10 SE 8 13 29.68 1005 10 16.09344 0 0
3:53 pm 15:53 Sunny 90 32.2 26 -3.3 10 10 WSW 5 7 29.65 1004 10 16.09344 0 0
4:53 pm 16:53 Sunny 89 31.7 31 -0.6 12 12 WNW 17 28 29.65 1004 10 16.09344 0 0
5:53 pm 17:53 Sunny 87 30.6 29 -1.7 12 12 W 12 19 29.68 1005 10 16.09344 0 0
6:53 pm 18:53 Sunny 85 29.4 32 0 15 15 N 15 24 29.68 1005 10 16.09344 0 0
7:53 pm 19:53 Partly Cloudy 84 28.9 32 0 15 15 ENE 8 13 29.71 1006 10 16.09344 0 0
8:53 pm 20:53 Clear 82 27.8 31 -0.6 16 16 NNW 10 17 29.71 1006 10 16.09344 0 0
9:53 pm 21:53 Clear 80 26.7 33 0.6 18 18 NW 5 7 29.74 1007 10 16.09344 0 0
10:53 pm 22:53 Clear 77 25 39 3.9 26 26 NE 9 15 29.74 1007 10 16.09344 0 0
11:53 pm 23:53 Clear 77 25 35 1.7 22 22 NE 7 11 29.77 1008 10 16.09344 0 0

Powered by AerisWeather